Rugby, ND

5:24 AM CST on December 08, 2019 (GMT -0600)
Rugby Municipal

Weather History for KRUG - October, 2019

Change the Weather History Date:

Monday, October 21, 2019

  Actual Average Record
Temperature  
Mean Temperature 38 °F -  
Max Temperature 44 °F 54 °F 74 °F (1953)
Min Temperature 32 °F 30 °F 11 °F (1987)
Degree Days  
Heating Degree Days 27    
Moisture  
Dew Point 34 °F    
Average Humidity 80    
Maximum Humidity 100    
Minimum Humidity 61    
Precipitation  
Precipitation 0.00 in - - ()
Sea Level Pressure  
Sea Level Pressure 29.87 in    
Wind  
Wind Speed 12 mph (North)    
Max Wind Speed 22 mph    
Max Gust Speed 30 mph    
Visibility 9 miles    
Events      
Averages and records for this station are not official NWS values.
T = Trace of Precipitation, MM = Missing Value Source: NWS Daily Summary

Daily Weather History Graph

Daily Weather History Graph

Search for Another Location

Airport or City:

Astronomy

Oct. 21, 2019 Rise Set
Actual Time 8:08 AM CDT 6:39 PM CDT
Civil Twilight 7:36 AM CDT 7:11 PM CDT
Nautical Twilight 7:00 AM CDT 7:48 PM CDT
Astronomical Twilight 6:24 AM CDT 8:24 PM CDT
Moon No Moon Rise 3:44 PM CDT (10/21)
Length of Visible Light 11h 35m
Length of Day
10h 31m
Waning Gibbous, 48% of the Moon is Illuminated
Oct 21
Waning Gibbous
Oct 27
New
Nov 4
First Quarter
Nov 12
Full
Nov 19
Last Quarter

Hourly Weather History & Observations

Time (CDT) Temp. Windchill Dew Point Humidity Pressure Visibility Wind Dir Wind Speed Gust Speed Precip Events Conditions
12:15 AM 42.8 °F 37.5 °F 41.0 °F 93% 29.86 in 10.0 mi North 9.2 mph - N/A   Overcast
12:35 AM 42.8 °F 37.5 °F 41.0 °F 93% 29.86 in 7.0 mi North 9.2 mph - N/A   Overcast
12:55 AM 42.8 °F 38.0 °F 41.0 °F 93% 29.86 in 10.0 mi NNE 8.1 mph - N/A   Overcast
1:15 AM 42.8 °F 38.0 °F 41.0 °F 93% 29.85 in 10.0 mi North 8.1 mph - N/A   Overcast
1:35 AM 41.0 °F 35.8 °F 41.0 °F 100% 29.85 in 10.0 mi North 8.1 mph - N/A   Overcast
1:55 AM 41.0 °F 35.8 °F 41.0 °F 100% 29.84 in 9.0 mi NNE 8.1 mph - N/A   Overcast
2:15 AM 42.8 °F 37.5 °F 41.0 °F 93% 29.84 in 10.0 mi NNE 9.2 mph - N/A   Overcast
2:35 AM 42.8 °F 37.5 °F 39.2 °F 87% 29.83 in 10.0 mi NNE 9.2 mph - N/A   Overcast
2:55 AM 42.8 °F 37.5 °F 39.2 °F 87% 29.83 in 10.0 mi NE 9.2 mph - N/A   Overcast
3:15 AM 41.0 °F 36.4 °F 39.2 °F 93% 29.83 in 10.0 mi North 6.9 mph - N/A   Overcast
3:35 AM 41.0 °F 34.7 °F 37.4 °F 87% 29.83 in 10.0 mi North 10.4 mph - N/A   Overcast
3:55 AM 41.0 °F 34.7 °F 35.6 °F 81% 29.84 in 10.0 mi North 10.4 mph - N/A   Overcast
4:15 AM 39.2 °F 33.6 °F 35.6 °F 87% 29.84 in 10.0 mi North 8.1 mph - N/A   Overcast
4:35 AM 39.2 °F 33.0 °F 35.6 °F 87% 29.84 in 10.0 mi North 9.2 mph - N/A   Overcast
4:55 AM 39.2 °F 32.0 °F 33.8 °F 81% 29.84 in 10.0 mi North 11.5 mph - N/A   Overcast
5:15 AM 39.2 °F 32.5 °F 33.8 °F 81% 29.85 in 10.0 mi North 10.4 mph - N/A   Overcast
5:35 AM 39.2 °F 33.0 °F 33.8 °F 81% 29.85 in 10.0 mi North 9.2 mph - N/A   Overcast
5:55 AM 39.2 °F 32.5 °F 33.8 °F 81% 29.85 in 10.0 mi North 10.4 mph - N/A   Overcast
6:15 AM 39.2 °F 32.0 °F 33.8 °F 81% 29.85 in 10.0 mi NNE 11.5 mph - N/A   Overcast
6:35 AM 39.2 °F 32.5 °F 33.8 °F 81% 29.85 in 10.0 mi NE 10.4 mph - N/A   Overcast
6:55 AM 39.2 °F 32.5 °F 33.8 °F 81% 29.85 in 10.0 mi NNE 10.4 mph - N/A   Overcast
7:15 AM 39.2 °F 33.6 °F 33.8 °F 81% 29.86 in 10.0 mi NNE 8.1 mph - N/A   Overcast
7:35 AM 37.4 °F 32.1 °F 33.8 °F 87% 29.86 in 10.0 mi NNW 6.9 mph - N/A   Overcast
7:55 AM 37.4 °F 32.1 °F 33.8 °F 87% 29.86 in 10.0 mi NNW 6.9 mph - N/A   Overcast
8:15 AM 37.4 °F 31.4 °F 33.8 °F 87% 29.86 in 10.0 mi NNW 8.1 mph - N/A   Overcast
8:35 AM 37.4 °F 30.3 °F 33.8 °F 87% 29.86 in 10.0 mi NNW 10.4 mph - N/A   Scattered Clouds
8:55 AM 35.6 °F 28.0 °F 33.8 °F 93% 29.86 in 10.0 mi NNW 10.4 mph - N/A   Clear
9:15 AM 37.4 °F 29.8 °F 33.8 °F 87% 29.86 in 10.0 mi NNW 11.5 mph - N/A   Clear
9:35 AM 37.4 °F 30.3 °F 35.6 °F 93% 29.87 in 10.0 mi North 10.4 mph - N/A   Clear
9:55 AM 39.2 °F 31.2 °F 35.6 °F 87% 29.88 in 10.0 mi North 13.8 mph - N/A   Clear
10:15 AM 39.2 °F 31.6 °F 35.6 °F 87% 29.88 in 10.0 mi NNE 12.7 mph - N/A   Clear
10:35 AM 39.2 °F 30.8 °F 35.6 °F 87% 29.88 in 10.0 mi North 15.0 mph - N/A   Clear
10:55 AM 41.0 °F 32.2 °F 35.6 °F 81% 29.88 in 10.0 mi NNE 18.4 mph - N/A   Clear
11:15 AM 41.0 °F 31.9 °F 35.6 °F 81% 29.88 in 10.0 mi NNE 19.6 mph - N/A   Clear
11:35 AM 41.0 °F 31.6 °F 35.6 °F 81% 29.88 in 10.0 mi NNE 20.7 mph - N/A   Clear
11:55 AM 41.0 °F 31.6 °F 37.4 °F 87% 29.87 in 10.0 mi North 20.7 mph - N/A   Clear
12:15 PM 42.8 °F 33.8 °F 35.6 °F 76% 29.87 in 4.0 mi NNE 21.9 mph 27.6 mph N/A   Haze
12:35 PM 42.8 °F 34.5 °F 35.6 °F 76% 29.87 in 3.0 mi NNE 18.4 mph 25.3 mph N/A   Haze
12:55 PM 42.8 °F 34.0 °F 35.6 °F 76% 29.87 in 4.0 mi NNE 20.7 mph 29.9 mph N/A   Haze
1:15 PM 44.6 °F 36.6 °F 35.6 °F 71% 29.87 in 4.0 mi NNE 19.6 mph 27.6 mph N/A   Haze
1:35 PM 44.6 °F 37.2 °F 35.6 °F 71% 29.87 in 4.0 mi North 17.3 mph 24.2 mph N/A   Haze
1:55 PM 44.6 °F 36.9 °F 35.6 °F 71% 29.87 in 9.0 mi North 18.4 mph 25.3 mph N/A   Scattered Clouds
2:15 PM 44.6 °F 36.4 °F 35.6 °F 71% 29.86 in 4.0 mi NNE 20.7 mph - N/A   Haze
2:35 PM 44.6 °F 36.9 °F 33.8 °F 66% 29.86 in 10.0 mi North 18.4 mph 24.2 mph N/A   Mostly Cloudy
2:55 PM 44.6 °F 36.4 °F 33.8 °F 66% 29.86 in 10.0 mi North 20.7 mph - N/A   Mostly Cloudy
3:15 PM 44.6 °F 36.4 °F 33.8 °F 66% 29.86 in 9.0 mi North 20.7 mph - N/A   Mostly Cloudy
3:35 PM 44.6 °F 36.4 °F 33.8 °F 66% 29.86 in 10.0 mi North 20.7 mph - N/A   Mostly Cloudy
3:55 PM 44.6 °F 36.4 °F 32.0 °F 61% 29.86 in 10.0 mi North 20.7 mph - N/A   Mostly Cloudy
4:15 PM 44.6 °F 36.4 °F 32.0 °F 61% 29.86 in 10.0 mi North 20.7 mph - N/A   Mostly Cloudy
4:35 PM 44.6 °F 36.4 °F 32.0 °F 61% 29.87 in 10.0 mi North 20.7 mph - N/A   Scattered Clouds
4:55 PM 42.8 °F 33.8 °F 30.2 °F 61% 29.87 in 10.0 mi North 21.9 mph - N/A   Partly Cloudy
5:15 PM 42.8 °F 34.5 °F 30.2 °F 61% 29.88 in 10.0 mi North 18.4 mph - N/A   Mostly Cloudy
5:35 PM 41.0 °F - 30.2 °F 65% 29.88 in 10.0 mi North - - N/A   Mostly Cloudy
5:55 PM 41.0 °F 32.2 °F 30.2 °F 65% 29.88 in 10.0 mi NNW 18.4 mph 26.5 mph N/A   Scattered Clouds
6:15 PM 39.2 °F 30.5 °F 30.2 °F 70% 29.88 in 10.0 mi NNW 16.1 mph 23.0 mph N/A   Clear
6:35 PM 39.2 °F 30.5 °F 30.2 °F 70% 29.88 in 10.0 mi NNW 16.1 mph 21.9 mph N/A   Clear
6:55 PM 39.2 °F 30.8 °F 30.2 °F 70% 29.88 in 10.0 mi NNW 15.0 mph - N/A   Clear
7:15 PM 37.4 °F 28.9 °F 30.2 °F 75% 29.89 in 10.0 mi NNW 13.8 mph - N/A   Clear
7:35 PM 37.4 °F 29.8 °F 30.2 °F 75% 29.89 in 10.0 mi NNW 11.5 mph - N/A   Clear
7:55 PM 35.6 °F 26.2 °F 28.4 °F 75% 29.88 in 10.0 mi NNW 15.0 mph - N/A   Clear
8:15 PM 35.6 °F 26.2 °F 28.4 °F 75% 29.88 in 10.0 mi NNW 15.0 mph - N/A   Clear
8:35 PM 33.8 °F 25.3 °F 28.4 °F 81% 29.89 in 10.0 mi NNW 11.5 mph - N/A   Clear
8:55 PM 33.8 °F 25.3 °F 28.4 °F 81% 29.89 in 10.0 mi NNW 11.5 mph - N/A   Clear
9:15 PM 33.8 °F 25.8 °F 28.4 °F 81% 29.89 in 10.0 mi NNW 10.4 mph - N/A   Clear
9:35 PM 33.8 °F 26.4 °F 28.4 °F 81% 29.89 in 10.0 mi NW 9.2 mph - N/A   Clear
9:55 PM 32.0 °F 23.6 °F 28.4 °F 87% 29.88 in 10.0 mi NNW 10.4 mph - N/A   Clear
10:15 PM 32.0 °F 23.0 °F 28.4 °F 87% 29.88 in 10.0 mi NNW 11.5 mph - N/A   Clear
10:35 PM 32.0 °F 23.0 °F 28.4 °F 87% 29.88 in 10.0 mi NNW 11.5 mph - N/A   Clear
10:55 PM 32.0 °F 22.5 °F 28.4 °F 87% 29.88 in 10.0 mi NNW 12.7 mph - N/A   Clear
11:15 PM 32.0 °F 22.1 °F 28.4 °F 87% 29.88 in 10.0 mi NW 13.8 mph - N/A   Clear
11:35 PM 32.0 °F 22.1 °F 28.4 °F 87% 29.88 in 10.0 mi NW 13.8 mph - N/A   Clear
11:55 PM 32.0 °F 22.5 °F 28.4 °F 87% 29.87 in 10.0 mi NNW 12.7 mph - N/A   Clear